• MPC Preparation (Info)

  • MPEC 2016-N124: 2013 FN28

    The following Minor Planet Electronic Circular may be linked-to from your own Web pages, but must not otherwise be redistributed electronically.

    A form allowing access to any MPEC is at the bottom of this page.


    Read MPEC 2016-N123 Read MPEC 2016-N125


    M.P.E.C. 2016-N124                               Issued 2016 July 15, 03:28 UT
    
         The Minor Planet Electronic Circulars contain information on unusual
             minor planets and routine data on comets.  They are published
        on behalf of Division F of the International Astronomical Union by the
              Minor Planet Center, Smithsonian Astrophysical Observatory,
                              Cambridge, MA 02138, U.S.A.
    
                 Prepared using the Tamkin Foundation Computer Network
    
                                  MPC@CFA.HARVARD.EDU
                URL https://www.minorplanetcenter.net/    ISSN 1523-6714
    
                                       2013 FN28
    
    Additional Observations:
         K13F28N  C2011 01 30.41407 10 42 10.711+01 50 34.35         21.4 wLEN124F51
         K13F28N  C2011 01 30.41538 10 42 10.695+01 50 34.35         21.4 wLEN124F51
         K13F28N  C2011 01 30.42883 10 42 10.609+01 50 34.73         21.7 wLEN124F51
         K13F28N  C2011 01 30.43017 10 42 10.590+01 50 34.71         21.5 wLEN124F51
         K13F28N  C2011 01 30.44490 10 42 10.487+01 50 35.10         21.4 wLEN124F51
         K13F28N  C2011 01 30.44620 10 42 10.477+01 50 35.12         21.5 wLEN124F51
         K13F28N  C2011 01 30.45969 10 42 10.378+01 50 35.59         21.6 wLEN124F51
         K13F28N  C2011 01 30.46101 10 42 10.373+01 50 35.57         21.5 wLEN124F51
         K13F28N  C2011 02 04.46016 10 41 34.429+01 52 59.74         21.5 wLEN124F51
         K13F28N  C2011 02 04.47442 10 41 34.324+01 53 00.20         21.5 wLEN124F51
         K13F28N  C2011 02 04.48889 10 41 34.205+01 53 00.55         21.5 wLEN124F51
         K13F28N  C2011 02 04.50338 10 41 34.111+01 53 01.03         21.6 wLEN124F51
         K13F28N  C2011 02 05.44830 10 41 27.070+01 53 30.66         21.4 wLEN124F51
         K13F28N  C2011 02 05.46254 10 41 26.964+01 53 31.08         21.3 wLEN124F51
         K13F28N  C2011 02 05.47699 10 41 26.847+01 53 31.59         21.5 wLEN124F51
         K13F28N  C2011 02 05.49142 10 41 26.739+01 53 32.00         21.4 wLEN124F51
         K13F28N  C2012 01 19.46781 10 59 20.064-00 24 03.84         21.5 wLEN124F51
         K13F28N  C2012 01 19.49066 10 59 19.948-00 24 03.61         21.5 wLEN124F51
         K13F28N  C2012 01 19.50472 10 59 19.874-00 24 03.46         21.5 wLEN124F51
         K13F28N  C2012 01 19.51880 10 59 19.803-00 24 03.29         21.5 wLEN124F51
         K13F28N  C2012 02 15.50362 10 56 19.732-00 12 55.00         21.4 rLEN124F51
         K13F28N  C2012 02 15.51547 10 56 19.639-00 12 54.66         21.2 rLEN124F51
         K13F28N  C2012 02 15.52935 10 56 19.532-00 12 54.11         21.0 iLEN124F51
         K13F28N  C2012 02 15.54218 10 56 19.422-00 12 53.67         21.0 iLEN124F51
         K13F28N  C2012 03 16.32116 10 52 13.796+00 09 10.35         21.2 wLEN124F51
         K13F28N  C2012 03 16.33545 10 52 13.661+00 09 10.98         21.4 wLEN124F51
         K13F28N  C2012 03 16.34975 10 52 13.587+00 09 11.78         21.4 wLEN124F51
         K13F28N  C2012 03 19.33892 10 51 49.712+00 11 37.89         21.3 wLEN124F51
         K13F28N  C2012 03 19.35288 10 51 49.601+00 11 38.64         21.3 wLEN124F51
         K13F28N  C2012 03 19.36684 10 51 49.486+00 11 39.30         21.3 wLEN124F51
         K13F28N  C2012 03 19.38080 10 51 49.373+00 11 39.97         21.3 wLEN124F51
         K13F28N  C2014 02 28.45255 11 27 52.901-04 35 49.00         21.1 wLEN124F51
         K13F28N  C2014 02 28.46462 11 27 52.800-04 35 48.53         21.2 wLEN124F51
         K13F28N  C2014 02 28.47669 11 27 52.701-04 35 48.03         21.2 wLEN124F51
         K13F28N  C2014 02 28.48877 11 27 52.602-04 35 47.48         21.3 wLEN124F51
         K13F28N  C2014 03 24.39995 11 24 33.447-04 16 43.36         21.4 wLEN124F51
         K13F28N  C2014 03 24.41225 11 24 33.341-04 16 42.52         21.3 wLEN124F51
         K13F28N  C2014 03 24.42453 11 24 33.231-04 16 41.97         21.2 wLEN124F51
         K13F28N  C2014 03 24.43684 11 24 33.136-04 16 41.34         21.2 wLEN124F51
         K13F28N  C2014 11 28.63955 11 47 34.473-06 31 22.23         21.6 wLEN124F51
         K13F28N  C2014 11 28.64218 11 47 34.479-06 31 22.52         21.5 wLEN124F51
         K13F28N  C2014 11 28.64480 11 47 34.512-06 31 22.60         21.5 wLEN124F51
         K13F28N  C2014 11 28.64745 11 47 34.525-06 31 22.70         21.6 wLEN124F51
         K13F28N  C2014 12 02.62188 11 47 58.218-06 35 39.03         21.5 wLEN124F51
         K13F28N  C2014 12 02.62649 11 47 58.224-06 35 39.47         21.7 wLEN124F51
         K13F28N  C2014 12 02.63109 11 47 58.263-06 35 39.78         21.7 wLEN124F51
         K13F28N  C2014 12 02.63568 11 47 58.279-06 35 40.14         21.6 wLEN124F51
         K13F28N  C2015 02 25.46992 11 45 29.677-06 54 59.34         21.7 wLEN124F51
         K13F28N  C2015 02 25.48387 11 45 29.580-06 54 58.96         21.5 wLEN124F51
         K13F28N  C2015 02 25.49782 11 45 29.466-06 54 58.27         21.6 wLEN124F51
         K13F28N  C2015 02 25.51171 11 45 29.357-06 54 57.98         21.3 wLEN124F51
         K13F28N  C2015 03 22.40185 11 42 03.774-06 36 27.33         21.4 wLEN124F51
         K13F28N  C2015 03 22.41573 11 42 03.657-06 36 26.60         21.3 wLEN124F51
         K13F28N  C2015 03 22.42956 11 42 03.536-06 36 25.93         21.3 wLEN124F51
         K13F28N  C2015 03 22.44338 11 42 03.419-06 36 25.17         21.2 wLEN124F51
         K13F28N  C2015 03 23.43067 11 41 55.148-06 35 34.23         21.2 wLEN124F51
         K13F28N  C2015 03 23.44460 11 41 55.027-06 35 33.57         21.4 wLEN124F51
         K13F28N  C2015 03 23.45846 11 41 54.906-06 35 32.81         21.3 wLEN124F51
         K13F28N  C2015 04 25.32116 11 37 54.603-06 06 51.39         21.2 rLEN124F51
         K13F28N  C2015 04 25.33262 11 37 54.541-06 06 50.75         21.2 rLEN124F51
         K13F28N  C2015 04 25.34425 11 37 54.483-06 06 50.05         21.5 rLEN124F51
         K13F28N  C2015 04 25.35566 11 37 54.394-06 06 49.42         21.1 rLEN124F51
         K13F28N  C2015 05 06.31181 11 37 00.292-05 58 30.26         21.2 iLEN124F51
         K13F28N  C2015 05 06.32572 11 37 00.246-05 58 29.73         20.9 iLEN124F51
         K13F28N  C2015 05 06.33957 11 37 00.178-05 58 29.14         20.9 iLEN124F51
         K13F28N  C2015 05 06.35340 11 37 00.120-05 58 28.45         20.8 iLEN124F51
    
    Observer details:
    F51 Pan-STARRS 1, Haleakala.  Observers B. Gibson, T. Goggia, N. Primak,
        A. Schultz, M. Willman.  Measurers K. Chambers, S. Chastel, Y.-T. Chen,
        L. Denneau, H. Flewelling, M. Holman, M. Huber, R. Jedicke, M. Lackner,
        E. Lilly, H.-W. Lin, E. Magnier, M. Micheli, M. Payne, P. Veres,
        R. Wainscoat, C. Waters, R. Weryk.  1.8-m Ritchey-Chretien + CCD.
    
    Orbital elements:
    2013 FN28
    Epoch 2016 July 31.0 TT = JDT 2457600.5                 MPC
    M 358.37418              (2000.0)            P               Q
    n   0.00459759     Peri.  250.65691     -0.97589117     +0.17438919
    a  35.8192257      Node   299.19503     -0.09575721     -0.88245921
    e   0.4325714      Incl.    8.64676     -0.19613001     -0.43686858
    P 214              H    8.1           G   0.15           U   1
    Residuals in seconds of arc
    110130 F51  0.0   0.0     120316 F51  0.0   0.2+    141128 F51  0.1-  0.1-
    110130 F51  0.1-  0.1-    120316 F51  0.2-  0.1+    141202 F51  0.1+  0.2+
    110130 F51  0.1+  0.0     120316 F51  0.4+  0.2+    141202 F51  0.2-  0.0
    110130 F51  0.1-  0.1-    120319 F51  0.0   0.0     141202 F51  0.0   0.0
    110130 F51  0.0   0.1-    120319 F51  0.0   0.1+    141202 F51  0.1-  0.1-
    110130 F51  0.0   0.1-    120319 F51  0.0   0.0     150225 F51  0.0   0.2+
    110130 F51  0.1-  0.0     120319 F51  0.0   0.0     150225 F51  0.2+  0.0
    110130 F51  0.0   0.0     130316 807  0.4-  0.0     150225 F51  0.1+  0.2+
    110204 F51  0.1-  0.0     130316 807  0.2-  0.2+    150225 F51  0.2+  0.0
    110204 F51  0.0   0.0     130316 807  0.3-  0.1+    150322 F51  0.0   0.1-
    110204 F51  0.2-  0.1-    130507 807  0.2+  0.6+    150322 F51  0.1+  0.1-
    110204 F51  0.1+  0.1-    130507 807  0.2+  0.6+    150322 F51  0.0   0.1-
    110205 F51  0.0   0.0     130508 807  0.2+  0.2+    150322 F51  0.1+  0.1-
    110205 F51  0.0   0.1-    140228 F51  0.0   0.0     150323 F51  0.0   0.0
    110205 F51  0.1-  0.0     140228 F51  0.0   0.0     150323 F51  0.1-  0.1-
    110205 F51  0.0   0.1-    140228 F51  0.1+  0.0     150323 F51  0.1-  0.1-
    120119 F51  0.0   0.0     140228 F51  0.1+  0.0     150425 F51  0.1+  0.2-
    120119 F51  0.1+  0.0     140324 F51  0.1+  0.2-    150425 F51  0.1+  0.1-
    120119 F51  0.1+  0.0     140324 F51  0.0   0.0     150425 F51  0.3+  0.0
    120119 F51  0.1+  0.0     140324 F51  0.1-  0.1-    150425 F51  0.0   0.1+
    120215 F51  0.0   0.1+    140324 F51  0.0   0.1-    150506 F51  0.2-  0.1+
    120215 F51  0.0   0.0     141128 F51  0.1-  0.1-    150506 F51  0.0   0.1+
    120215 F51  0.1+  0.0     141128 F51  0.3-  0.2-    150506 F51  0.2-  0.1+
    120215 F51  0.0   0.0     141128 F51  0.0   0.1-    150506 F51  0.1-  0.2+
    
    Ephemeris:
    2013 FN28                a,e,i = 35.82, 0.43, 9                  q = 20.325
    Date    TT    R. A. (2000) Decl.     Delta      r     Elong.  Phase     V
    2016 06 15    11 53 10.3 -07 54 10  20.1935 20.3496    97.4     2.8    21.5
    ...
    2016 06 30    11 53 59.4 -07 53 57  20.4390 20.3478    83.4     2.8    21.5
    ...
    2016 07 08    11 54 41.2 -07 55 38  20.5681 20.3468    76.0     2.8    21.5
    ...
    2016 07 14    11 55 19.4 -07 57 43  20.6623 20.3461    70.5     2.7    21.5
    2016 07 15    11 55 26.3 -07 58 08  20.6777 20.3460    69.6     2.7    21.5
    2016 07 16    11 55 33.3 -07 58 34  20.6929 20.3459    68.7     2.7    21.5
    ...
    2016 07 22    11 56 18.7 -08 01 35  20.7825 20.3452    63.2     2.6    21.5
    ...
    2016 07 30    11 57 27.0 -08 06 38  20.8950 20.3443    56.0     2.4    21.5
    ...
    2016 08 14    11 59 56.3 -08 19 06  21.0785 20.3427    42.5     1.9    21.5
    
    A. U. Tomatic                (C) Copyright 2016 MPC           M.P.E.C. 2016-N124
    

    Read MPEC 2016-N123 Read MPEC 2016-N125


    MPEC number:

    Enter an MPEC number in one of the following forms:

    • 1997-B01 (the full form)
    • J97B01 (the packed version of the full form)
    • B01 (the abbreviated form)